Погода в Засулье

Россия / Архангельская область     64°40′17″N   47°48′42″E
темп.,
°C
ветер,
м/с
пор.,
м/с
влажн.,
%
обл.,
%
осадки,
мм/ч
давл.,
гПа
погр.,
м
5 августа, чт
чт500:00+11ююз398590 0.0 1009255
03:00+9зюз39833 0.0 1010354
06:00+10зюз487118 0.0 1012746
09:00+12зюз4664100 0.0 10131057
12:00+12зюз466895 0.1 10141019
15:00+12зюз4772100 0.1 1015871
18:00+11з3781100 0.0 1016698
21:00+10зсз2693100 0.1 1017409
6 августа, пт
пт600:00+9зсз2694100 0.1 1018385
03:00+9сз3694100 0.1 1019438
06:00+9сз2690100 0.0 1020377
09:00+13сз246112 0.0 10211011
12:00+17ссз354250 0.0 10201919
15:00+15ссз455076 0.0 10211168
18:00+15ссз345489 0.0 10211366
21:00+10ссз22776 0.0 102227
7 августа, сб
сб700:00+7с22870 0.0 102339
03:00+5ссз22901 0.0 102431
06:00+9с24730 0.0 1025256
09:00+14ссв34500 0.0 10241006
12:00+17ссв34423 0.0 10241576
15:00+18ссв45395 0.0 10231800
18:00+17ссв35485 0.0 10231242
21:00+10ссв24731 0.0 102457
8 августа, вс
вс800:00+8всв24860 0.0 102579
03:00+6св22900 0.0 102627
06:00+10св25710 0.0 1026242
09:00+15св35500 0.0 1026961
12:00+18всв35420 0.0 10251527
15:00+20св34394 0.0 10241788
18:00+18св25485 0.0 1024490
21:00+12всв227491 0.0 102514
9 августа, пн
пн900:00+9всв22836 0.0 102520
03:00+7св228839 0.0 102626
06:00+11всв25674 0.0 1025219
09:00+16всв24420 0.0 1024799
12:00+19св33330 0.0 10231298
15:00+20св34320 0.0 10221565
18:00+18св35434 0.0 1021701
21:00+12всв257353 0.0 1022120